New York, NY

1:54 PM EDT on April 19, 2018 (GMT -0400)
La Guardia

Weather History for KLGA - March, 2012

Change the Weather History Date:

Friday, March 30, 2012

  Actual Average Record
Temperature  
Mean Temperature 50 °F 47 °F  
Max Temperature 58 °F 55 °F 79 °F (1998)
Min Temperature 42 °F 39 °F 23 °F (1970)
Degree Days  
Heating Degree Days 15 18  
Month to date heating degree days 411 688  
Since 1 July heating degree days 3217 4117  
Cooling Degree Days 0 0  
Month to date cooling degree days 0 0  
Year to date cooling degree days 0 0  
Moisture  
Dew Point 23 °F    
Average Humidity 40    
Maximum Humidity 60    
Minimum Humidity 20    
Precipitation  
Precipitation 0.10 in 0.13 in 2.65 in (1951)
Month to date precipitation 0.65 3.83  
Year to date precipitation 4.50 9.76  
Snow  
Snow 0.00 in 0.00 in T in (2015)
Month to date snowfall 0.0 4.3  
Since 1 July snowfall 5.1 26.3  
Snow Depth 0.00 in    
Sea Level Pressure  
Sea Level Pressure 30.02 in    
Wind  
Wind Speed 10 mph (NW)    
Max Wind Speed 20 mph    
Max Gust Speed 23 mph    
Visibility 10 miles    
Events Rain    
T = Trace of Precipitation, MM = Missing Value Source: NWS Daily Summary

Daily Weather History Graph

Daily Weather History Graph

Search for Another Location

Airport or City:

Astronomy

Mar. 30, 2012 Rise Set
Actual Time 6:41 AM EDT 7:18 PM EDT
Civil Twilight 6:13 AM EDT 7:46 PM EDT
Nautical Twilight 5:41 AM EDT 8:18 PM EDT
Astronomical Twilight 5:07 AM EDT 8:52 PM EDT
Moon 11:42 AM EDT (3/30) 1:54 AM EDT (3/30)
Length of Visible Light 13h 32m
Length of Day
12h 37m
Waxing Crescent, 49% of the Moon is Illuminated
Mar 30
Waxing Crescent
Mar 30
First Quarter
Apr 6
Full
Apr 13
Last Quarter
Apr 21
New

Hourly Weather History & Observations

Time (EDT) Temp. Windchill Dew Point Humidity Pressure Visibility Wind Dir Wind Speed Gust Speed Precip Events Conditions
12:51 AM 45.0 °F 38.2 °F 25.0 °F 46% 30.02 in 10.0 mi NNW 15.0 mph 20.7 mph N/A   Mostly Cloudy
1:51 AM 44.1 °F 37.1 °F 23.0 °F 43% 30.02 in 10.0 mi NNW 15.0 mph - N/A   Mostly Cloudy
2:51 AM 44.1 °F 37.4 °F 25.0 °F 47% 30.01 in 10.0 mi WNW 13.8 mph - N/A   Overcast
3:51 AM 43.0 °F 36.0 °F 23.0 °F 45% 30.01 in 10.0 mi NNW 13.8 mph 17.3 mph N/A   Overcast
4:51 AM 43.0 °F 35.4 °F 21.9 °F 43% 30.02 in 10.0 mi NNW 16.1 mph 20.7 mph N/A   Mostly Cloudy
5:51 AM 42.1 °F 36.1 °F 21.9 °F 45% 30.04 in 10.0 mi NNW 10.4 mph - N/A   Scattered Clouds
6:51 AM 42.1 °F 36.6 °F 23.0 °F 47% 30.05 in 10.0 mi NW 9.2 mph - N/A   Partly Cloudy
7:51 AM 42.1 °F 36.6 °F 21.9 °F 45% 30.05 in 10.0 mi North 9.2 mph - N/A   Partly Cloudy
8:51 AM 42.1 °F 33.3 °F 21.9 °F 45% 30.06 in 10.0 mi North 19.6 mph - N/A   Partly Cloudy
9:51 AM 44.1 °F 40.1 °F 19.9 °F 38% 30.07 in 10.0 mi NNW 6.9 mph - N/A   Partly Cloudy
10:51 AM 46.0 °F 41.0 °F 17.1 °F 31% 30.09 in 10.0 mi NW 10.4 mph - N/A   Partly Cloudy
11:51 AM 46.9 °F - 17.1 °F 30% 30.07 in 10.0 mi WNW 8.1 mph - N/A   Partly Cloudy
12:51 PM 48.9 °F - 17.1 °F 28% 30.06 in 10.0 mi NW 6.9 mph - N/A   Partly Cloudy
1:51 PM 52.0 °F - 15.1 °F 23% 30.02 in 10.0 mi WNW 8.1 mph - N/A   Partly Cloudy
2:51 PM 53.1 °F - 16.0 °F 23% 30.00 in 10.0 mi ENE 6.9 mph - N/A   Partly Cloudy
3:51 PM 55.0 °F - 15.1 °F 21% 29.98 in 10.0 mi Calm Calm - N/A   Clear
4:51 PM 57.0 °F - 18.0 °F 22% 29.96 in 10.0 mi East 10.4 mph 17.3 mph N/A   Clear
5:51 PM 53.1 °F - 26.1 °F 35% 29.96 in 10.0 mi South 18.4 mph - N/A   Scattered Clouds
6:51 PM 48.0 °F - 28.0 °F 46% 29.99 in 10.0 mi South 12.7 mph - N/A   Mostly Cloudy
7:51 PM 46.9 °F - 28.9 °F 50% 29.99 in 10.0 mi South 10.4 mph - N/A   Mostly Cloudy
8:51 PM 46.9 °F - 30.9 °F 54% 29.98 in 10.0 mi South 9.2 mph - N/A   Mostly Cloudy
9:51 PM 46.9 °F - 33.1 °F 59% 29.98 in 10.0 mi South 12.7 mph - N/A   Mostly Cloudy
10:51 PM 46.9 °F - 33.1 °F 59% 29.96 in 10.0 mi SSE 11.5 mph - N/A   Overcast
11:51 PM 46.9 °F - 34.0 °F 61% 30.01 in 10.0 mi South 6.9 mph - 0.01 in Rain Light Rain